SPACEBEE-86 (47704 NORAD) Tracking and Keplerian Element Data

This shows tracking and keplerian element data for the satellite.

Feedback or suggestion? Click here.




ElementValue
Catalog47704
NameSPACEBEE-86
Epoch Orbit613
Epoch Day99.76476334
Epoch Year2021
RAAN174.7084
Inclination97.4564
Eccentricity0.0011875
Argument of Perigee148.3931
Mean Anonmoly211.802
Mean Motion15.21482311
Decay Rate4.024E-05
L11 47704U 21015F 21099.76476334 .00004024 00000-0 18176-3 0 9998
L22 47704 97.4564 174.7084 0011875 148.3931 211.8020 15.21482311 6133

Live tracking and technical data element details for SPACEBEE-86 (NORAD 47704). SPACEBEE-86 can be tracked NOW for your location showing map with azimuth and elevation plus other details from your city location.

Track the satellite on the map from your city or location and see movement details for azimuth, elevation, latitude, longitude, range, height, and movement on the map or in text.







IsCatalogInMostPopularTable: catalog: 47704, numindb: 8
Update: records affected: 1



GetName: 47704 SPACEBEE-86

Hit Count: updated at: Sat, 10 Apr 2021 18:23:05 GMT